Home   Weather   Bridgetown   Past weeks

Flag for Barbados Past Weather in Bridgetown, Barbados — Yesterday and Last 2 Weeks

Now
79 °F

Passing clouds.


Feels Like: 82 °F
Forecast: N/A
Wind: 13 mph from Southwest

Location: Grantley Adams

Current Time: Feb 21, 2017 at 7:41:08 pm

Latest Report: Feb 21, 2017 at 7:00 pm


Visibility: N/A

Pressure: 29.80 "Hg

Humidity: 79%

Dew Point: 72 °F

Location of BridgetownLocation

Past Weather in Bridgetown — Graph

°F

Bridgetown Temperature Yesterday

Maximum temperature yesterday: 82 °F (at 9:00 am)
Minimum temperature yesterday: 73 °F (at 10:00 pm)
Average temperature yesterday: 79 °F

High & Low Weather Summary for the Past Weeks

 TemperatureHumidityPressure
High86 °F (Feb 8, 1:00 pm)94% (Feb 7, 12:00 pm)30.09 "Hg (Feb 7, 12:00 pm)
Low72 °F (Feb 15, 6:00 am)47% (Feb 18, 8:00 am)29.80 "Hg (Feb 21, 3:00 pm)
Average79 °F73%29.97 "Hg
* Reported Feb 6 6:00 pm — Feb 21 6:00 pm, Bridgetown, Weather by CustomWeather, © 2017

Note: Actual official high and low records may vary slightly from our data, if they occured in-between our weather recording intervals... More about our weather records

Advertising

Bridgetown Weather History for the Previous 24 Hours

Scroll right to see more
 ConditionsComfort  
Time TempWeatherWind HumidityBarometerVisibility
6:00 pm
Tue, Feb 21
79 °FPassing clouds.12 mph79%29.80 "HgN/A
5:00 pm82 °FScattered clouds.14 mph70%29.80 "HgN/A
4:00 pm82 °FScattered clouds.13 mph66%29.80 "HgN/A
3:00 pm82 °FPartly sunny.14 mph70%29.80 "HgN/A
2:00 pm84 °FScattered clouds.14 mph62%29.83 "HgN/A
1:00 pm84 °FPassing clouds.14 mph66%29.86 "HgN/A
12:00 pm84 °FPassing clouds.13 mph66%29.89 "HgN/A
11:00 am84 °FPassing clouds.13 mph66%29.92 "HgN/A
10:00 am82 °FScattered clouds.13 mph70%29.92 "HgN/A
9:00 am82 °FScattered clouds.12 mph66%29.92 "HgN/A
8:00 am81 °FPassing clouds.10 mph74%29.89 "HgN/A
7:00 am79 °FPartly sunny.9 mph74%29.89 "HgN/A
6:00 am77 °FPassing clouds.9 mph74%29.86 "HgN/A
5:00 am77 °FPassing clouds.10 mph79%29.86 "HgN/A
4:00 am77 °FPassing clouds.9 mph79%29.86 "HgN/A
3:00 am77 °FPassing clouds.9 mph79%29.86 "HgN/A
2:00 am77 °FPassing clouds.8 mph74%29.89 "HgN/A
1:00 am77 °FPassing clouds.10 mph79%29.89 "HgN/A
12:00 am77 °FPassing clouds.8 mph79%29.92 "HgN/A
11:00 pm
Mon, Feb 20
77 °FPassing clouds.6 mph79%29.92 "HgN/A
10:00 pm73 °FPassing clouds.10 mph83%29.92 "HgN/A
9:00 pm77 °FPassing clouds.10 mph79%29.92 "HgN/A
8:00 pm77 °FPassing clouds.10 mph79%29.89 "HgN/A
7:00 pm75 °FPassing clouds.9 mph83%29.89 "HgN/A
Weather by CustomWeather, © 2017

See weather overviewHow to use our weather pages